Weather History for Cocoa Beach, FL

Change the Weather History Date:

Wednesday, January 9, 2013

  Actual Average Record
Temperature  
Mean Temperature 73 °F -  
Max Temperature 77 °F 68 °F 82 °F (1997)
Min Temperature 69 °F 54 °F 39 °F (2002)
Cooling Degree Days 8    
Growing Degree Days 23 (Base 50)    
Moisture  
Dew Point 69 °F    
Average Humidity 90    
Maximum Humidity 100    
Minimum Humidity 80    
Precipitation  
Precipitation 0.00 in - - ()
Sea Level Pressure  
Sea Level Pressure 30.27 in    
Wind  
Wind Speed 7 mph (SE)    
Max Wind Speed 14 mph    
Max Gust Speed -    
Visibility 8 miles    
Events Rain    
Averages and records for this station are not official NWS values.
T = Trace of Precipitation, MM = Missing Value Source: NWS Daily Summary

Daily Weather History Graph

Daily Weather History Graph

Search for Another Location

Airport:

Trip Planner

Search our weather history database for the weather conditions in past years. The results will help you decide how hot, cold, wet, or windy it might be!

Date:

Astronomy

Jan. 09, 2013 Rise Set
Actual Time 7:15 AM EST 5:43 PM EST
Civil Twilight 6:50 AM EST 6:09 PM EST
Nautical Twilight 6:21 AM EST 6:38 PM EST
Astronomical Twilight 5:52 AM EST 7:07 PM EST
Moon 4:53 AM EST (1/9) 3:44 PM EST (1/9)
Length of Visible Light 11h 19m
Length of Day
10h 28m
Waning Crescent, 6% of the Moon is Illuminated
Jan 9
Waning Crescent
Jan 11
New
Jan 18
First Quarter
Jan 26
Full
Feb 3
Last Quarter

Hourly Weather History & Observations

Time (EST) Temp. Dew Point Humidity Pressure Visibility Wind Dir Wind Speed Gust Speed Precip Events Conditions
12:55 AM 70.5 °F 69.4 °F 96% 30.22 in 3.0 mi SE 3.5 mph - N/A   Clear
12:56 AM 69.8 °F 69.8 °F 100% 30.22 in 3.0 mi SE 4.6 mph - N/A Rain Light Rain
1:07 AM 69.8 °F 68.0 °F 94% 30.22 in 4.0 mi SE 5.8 mph - N/A   Clear
1:55 AM 70.3 °F 69.3 °F 96% 30.22 in 6.0 mi SE 5.8 mph - 0.00 in   Clear
2:06 AM 69.8 °F 68.0 °F 94% 30.22 in 5.0 mi SE 5.8 mph - N/A   Clear
2:55 AM 70.0 °F 68.7 °F 96% 30.23 in 3.0 mi East 3.5 mph - N/A   Clear
3:47 AM 69.8 °F 69.8 °F 100% 30.23 in 6.0 mi ESE 4.6 mph - N/A   Clear
3:55 AM 70.3 °F 69.1 °F 96% 30.23 in 7.0 mi ESE 4.6 mph - N/A   Clear
4:11 AM 69.8 °F 68.0 °F 94% 30.23 in 5.0 mi SE 5.8 mph - N/A   Clear
4:17 AM 69.8 °F 68.0 °F 94% 30.23 in 6.0 mi SE 6.9 mph - N/A   Clear
4:55 AM 71.2 °F 70.0 °F 96% 30.23 in 7.0 mi ESE 6.9 mph - N/A   Partly Cloudy
5:55 AM 70.9 °F 69.1 °F 94% 30.24 in 10.0 mi SSE 10.4 mph - N/A   Clear
6:38 AM 71.6 °F 66.2 °F 83% 30.25 in 10.0 mi South 13.8 mph - N/A   Light Drizzle
6:46 AM 71.6 °F 66.2 °F 83% 30.25 in 10.0 mi SSE 10.4 mph - N/A   Partly Cloudy
6:55 AM 71.4 °F 66.7 °F 85% 30.25 in 10.0 mi SSE 9.2 mph - 0.00 in   Partly Cloudy
7:55 AM 71.8 °F 68.2 °F 88% 30.27 in 10.0 mi SE 8.1 mph - N/A   Mostly Cloudy
8:55 AM 73.8 °F 70.2 °F 88% 30.30 in 10.0 mi SE 10.4 mph - N/A   Clear
9:55 AM 74.7 °F 70.7 °F 87% 30.31 in 10.0 mi SE 10.4 mph - N/A   Clear
10:55 AM 76.1 °F 70.7 °F 83% 30.31 in 10.0 mi SE 11.5 mph - N/A   Clear
11:55 AM 76.8 °F 70.7 °F 81% 30.30 in 10.0 mi SE 10.4 mph - N/A   Clear
12:55 PM 77.5 °F 71.1 °F 80% 30.28 in 10.0 mi SE 8.1 mph - N/A   Clear
1:55 PM 77.5 °F 70.9 °F 80% 30.27 in 10.0 mi ESE 8.1 mph - N/A   Clear
2:55 PM 77.0 °F 71.2 °F 82% 30.27 in 10.0 mi East 8.1 mph - N/A   Clear
3:55 PM 76.6 °F 70.9 °F 82% 30.27 in 10.0 mi ESE 10.4 mph - N/A   Clear
4:55 PM 74.8 °F 70.2 °F 85% 30.27 in 10.0 mi ESE 9.2 mph - N/A   Clear
5:55 PM 73.6 °F 70.2 °F 89% 30.28 in 10.0 mi ESE 8.1 mph - N/A   Clear
6:55 PM 72.9 °F 70.0 °F 91% 30.29 in 10.0 mi ESE 8.1 mph - N/A   Clear
7:55 PM 72.5 °F 69.8 °F 91% 30.30 in 10.0 mi ESE 8.1 mph - N/A   Clear
8:55 PM 72.5 °F 70.2 °F 92% 30.32 in 10.0 mi East 8.1 mph - N/A   Clear
9:55 PM 72.5 °F 70.3 °F 93% 30.33 in 10.0 mi East 9.2 mph - N/A   Clear
10:55 PM 72.5 °F 70.2 °F 92% 30.32 in 10.0 mi East 11.5 mph - N/A   Clear
11:55 PM 72.5 °F 70.2 °F 92% 30.32 in 10.0 mi ESE 11.5 mph - N/A   Clear